Vertical_Velocity
1 3 5 5 3 4 4 5 1 -1 0 1 -1 -2 -2 -2 -2 -1 -1 -3 -1 -1
0 1 3 4 4 1 2 3 1 1 3 1 -0 -2 -1 -3 -2 0 -3 -2 -0 -0
8 6 6 3 0 3 1 0 2 2 2 0 1 -2 -2 -1 -1 -1 -1 -1 -0 -2
4 4 4 3 3 1 0 -0 2 2 1 -2 -0 -0 -2 -0 -1 -1 -1 -1 -1 -1
3 6 7 2 1 1 2 2 1 -0 -1 -1 -2 -1 1 -0 -0 -1 -2 -1 -1 -2
4 5 3 1 2 1 1 -1 -0 -0 -1 -2 -1 1 1 0 -1 -2 -0 -1 -1 -0
5 6 4 3 1 1 1 0 1 2 1 -4 -0 -0 0 -1 -2 -1 -1 -1 0 -0
2 1 0 -2 -1 -0 -1 1 -0 1 -1 -2 0 -0 -1 -3 -2 -1 -2 0 -1 -1
-1 1 1 1 -0 -0 -0 -0 -1 -0 1 0 -2 -1 -1 -3 -2 -1 1 1 0 -2
1 1 1 -0 -1 -1 -0 -1 -1 -1 0 -0 1 -2 -3 -2 1 -0 -0 -1 -1 -0
0 0 3 2 2 1 2 2 2 1 2 1 -0 -3 -2 1 -1 -0 -2 -1 -5 -1
3 4 3 3 3 2 3 4 3 2 2 0 -1 -2 -3 1 1 -1 -2 -2 -4 -2
6 2 1 2 2 2 0 1 3 2 -1 0 -0 -2 2 2 1 0 -2 -1 -1 -1
3 2 3 3 2 2 2 1 1 -1 2 -2 0 3 1 -1 1 1 -2 0 3 -3
Height
3035 3040 3045 3049 3052 3056 3061 3064 3065 3067 3070 3073 3074 3074 3073 3072 3070 3068 3065 3062 3060 3055
3026 3031 3036 3041 3045 3048 3052 3054 3057 3060 3063 3066 3067 3067 3067 3066 3064 3061 3058 3055 3052 3048
3018 3023 3029 3032 3036 3040 3044 3047 3050 3054 3057 3059 3060 3061 3060 3059 3057 3054 3051 3048 3046 3041
3008 3016 3021 3024 3028 3031 3036 3040 3044 3047 3050 3052 3053 3054 3053 3052 3050 3048 3045 3042 3039 3033
2999 3006 3010 3014 3018 3023 3029 3033 3036 3040 3042 3045 3047 3047 3046 3045 3043 3041 3038 3034 3030 3026
2989 2995 3001 3005 3011 3017 3022 3026 3029 3032 3035 3038 3039 3039 3039 3037 3036 3034 3030 3026 3022 3017
2980 2987 2993 2999 3005 3011 3015 3018 3022 3024 3027 3030 3031 3032 3031 3030 3029 3026 3022 3018 3014 3010
2972 2979 2986 2992 2999 3004 3007 3011 3014 3017 3019 3021 3023 3024 3024 3023 3021 3019 3015 3010 3006 3002
2965 2972 2979 2986 2991 2996 3000 3003 3006 3009 3011 3013 3015 3017 3017 3015 3013 3010 3007 3004 2999 2995
2959 2966 2974 2980 2986 2989 2993 2996 2998 3001 3004 3006 3008 3010 3009 3007 3005 3003 2999 2996 2991 2988
2955 2962 2968 2973 2978 2982 2986 2988 2990 2993 2996 2999 3001 3002 3000 2999 2997 2995 2992 2988 2982 2978
2948 2955 2961 2967 2972 2975 2978 2980 2983 2986 2989 2992 2994 2994 2992 2991 2990 2987 2984 2980 2976 2971
2944 2950 2956 2961 2965 2968 2971 2973 2976 2979 2982 2985 2986 2985 2985 2983 2982 2980 2978 2974 2970 2964
2938 2944 2950 2954 2957 2960 2963 2966 2970 2973 2976 2977 2977 2977 2976 2975 2974 2973 2970 2967 2963 2958